TimeEST,TemperatureF,Dew PointF,Humidity,Sea Level PressureIn,VisibilityMPH,Wind Direction,Wind SpeedMPH,Gust SpeedMPH,PrecipitationIn,Events,Conditions,WindDirDegrees,DateUTC
12:02 AM,62.6,60.8,94,30.09,0.5,Calm,Calm,-,N/A,Fog,Fog,0,2011-11-15 05:02:00
12:29 AM,60.8,59.0,94,30.09,0.5,Calm,Calm,-,N/A,Fog,Fog,0,2011-11-15 05:29:00
12:45 AM,60.8,59.0,94,30.09,1.0,Calm,Calm,-,N/A,,Mist,0,2011-11-15 05:45:00
12:53 AM,60.1,57.9,93,30.09,0.8,Calm,Calm,-,N/A,,Mist,0,2011-11-15 05:53:00
1:00 AM,59.0,57.2,94,30.09,0.5,Calm,Calm,-,N/A,Fog,Fog,0,2011-11-15 06:00:00
1:29 AM,64.4,62.6,94,30.08,1.0,SSE,3.5,-,0.01,,Mist,160,2011-11-15 06:29:00
1:53 AM,61.0,60.1,97,30.09,1.2,Calm,Calm,-,0.01,,Partly Cloudy,0,2011-11-15 06:53:00
2:02 AM,60.8,60.8,100,30.08,0.8,Calm,Calm,-,N/A,,Mist,0,2011-11-15 07:02:00
2:09 AM,62.6,60.8,94,30.08,0.5,Calm,Calm,-,N/A,Fog,Fog,0,2011-11-15 07:09:00
2:28 AM,62.6,60.8,94,30.08,0.2,Calm,Calm,-,N/A,Fog,Fog,0,2011-11-15 07:28:00
2:42 AM,62.6,60.8,94,30.08,0.8,Calm,Calm,-,N/A,,Overcast,0,2011-11-15 07:42:00
2:50 AM,62.6,60.8,94,30.08,2.0,Calm,Calm,-,N/A,,Overcast,0,2011-11-15 07:50:00
2:53 AM,63.0,61.0,93,30.08,2.0,Calm,Calm,-,N/A,,Overcast,0,2011-11-15 07:53:00
3:01 AM,62.6,60.8,94,30.07,1.2,Calm,Calm,-,N/A,,Overcast,0,2011-11-15 08:01:00
3:12 AM,62.6,62.6,100,30.07,3.0,Calm,Calm,-,N/A,,Overcast,0,2011-11-15 08:12:00
3:47 AM,62.6,60.8,94,30.06,1.8,Calm,Calm,-,N/A,,Overcast,0,2011-11-15 08:47:00
4:16 AM,64.4,62.6,94,30.05,2.5,Calm,Calm,-,N/A,,Overcast,0,2011-11-15 09:16:00
4:24 AM,64.4,62.6,94,30.06,8.0,Calm,Calm,-,N/A,,Overcast,0,2011-11-15 09:24:00
4:53 AM,64.9,63.0,93,30.05,10.0,Calm,Calm,-,N/A,,Overcast,0,2011-11-15 09:53:00
5:37 AM,62.6,60.8,94,30.05,3.0,Calm,Calm,-,N/A,,Scattered Clouds,0,2011-11-15 10:37:00
5:41 AM,64.4,60.8,88,30.05,1.2,Calm,Calm,-,N/A,,Mostly Cloudy,0,2011-11-15 10:41:00
5:44 AM,64.4,62.6,94,30.05,0.5,Calm,Calm,-,N/A,Fog,Fog,0,2011-11-15 10:44:00
5:53 AM,64.0,62.1,93,30.05,3.0,Calm,Calm,-,N/A,,Clear,0,2011-11-15 10:53:00
7:00 AM,62.6,62.6,100,30.06,0.2,Calm,Calm,-,N/A,Fog,Fog,0,2011-11-15 12:00:00
8:03 AM,64.4,64.4,100,30.07,0.8,Calm,Calm,-,N/A,,Mist,0,2011-11-15 13:03:00
8:08 AM,64.4,64.4,100,30.08,2.0,Calm,Calm,-,N/A,,Scattered Clouds,0,2011-11-15 13:08:00
8:15 AM,64.4,64.4,100,30.08,3.0,Calm,Calm,-,N/A,,Scattered Clouds,0,2011-11-15 13:15:00
8:53 AM,66.2,66.0,99,30.08,8.0,Calm,Calm,-,N/A,,Overcast,0,2011-11-15 13:53:00
9:03 AM,-9999,-9999,N/A,30.08,8.0,Calm,Calm,-,N/A,,Overcast,0,2011-11-15 14:03:00
9:33 AM,-9999,-9999,N/A,30.09,10.0,Calm,Calm,-,N/A,,Overcast,0,2011-11-15 14:33:00
9:50 AM,-9999,-9999,N/A,30.08,7.0,SSE,3.5,-,N/A,,Overcast,150,2011-11-15 14:50:00
10:00 AM,-9999,-9999,N/A,30.09,5.0,SSE,3.5,-,0.00,Rain,Light Rain,150,2011-11-15 15:00:00
10:08 AM,-9999,-9999,N/A,30.09,2.5,Calm,Calm,-,0.01,Rain,Rain,0,2011-11-15 15:08:00
10:20 AM,69.8,69.8,100,30.09,4.0,SSE,5.8,-,0.01,Rain,Light Rain,160,2011-11-15 15:20:00
10:53 AM,71.6,71.6,100,30.09,10.0,South,6.9,-,0.01,,Overcast,170,2011-11-15 15:53:00
11:12 AM,71.6,71.6,100,30.08,10.0,South,6.9,-,N/A,,Overcast,180,2011-11-15 16:12:00
11:53 AM,72.0,71.1,97,30.06,10.0,SSE,11.5,-,N/A,,Mostly Cloudy,160,2011-11-15 16:53:00
12:53 PM,78.1,69.1,74,30.03,10.0,South,4.6,-,N/A,,Overcast,180,2011-11-15 17:53:00
1:38 PM,80.6,69.8,70,30.01,10.0,SSW,8.1,-,N/A,,Scattered Clouds,210,2011-11-15 18:38:00
1:53 PM,81.0,69.1,67,30.01,10.0,South,8.1,-,N/A,,Clear,180,2011-11-15 18:53:00
2:53 PM,82.9,69.1,63,29.99,10.0,South,9.2,-,N/A,,Partly Cloudy,170,2011-11-15 19:53:00
3:53 PM,78.1,68.0,71,29.99,10.0,ESE,6.9,-,N/A,,Mostly Cloudy,120,2011-11-15 20:53:00
4:53 PM,77.0,68.0,74,29.99,10.0,ESE,4.6,-,N/A,,Clear,110,2011-11-15 21:53:00
5:53 PM,73.0,68.0,84,29.99,10.0,SE,5.8,-,N/A,,Clear,130,2011-11-15 22:53:00
6:53 PM,71.1,68.0,90,30.01,10.0,SSE,4.6,-,N/A,,Clear,160,2011-11-15 23:53:00
7:53 PM,70.0,66.9,90,30.01,10.0,SSE,6.9,-,N/A,,Clear,150,2011-11-16 00:53:00
8:53 PM,71.1,68.0,90,30.01,10.0,SSE,5.8,-,N/A,,Clear,160,2011-11-16 01:53:00
9:53 PM,-9999,-9999,N/A,30.03,10.0,South,5.8,-,N/A,,Clear,180,2011-11-16 02:53:00
10:53 PM,-9999,-9999,N/A,30.04,10.0,South,3.5,-,N/A,,Scattered Clouds,190,2011-11-16 03:53:00
11:05 PM,-9999,-9999,N/A,30.02,10.0,South,4.6,-,N/A,,Mostly Cloudy,170,2011-11-16 04:05:00
11:15 PM,-9999,-9999,N/A,30.01,10.0,SSE,6.9,-,N/A,,Scattered Clouds,160,2011-11-16 04:15:00
11:53 PM,-9999,-9999,N/A,30.01,10.0,Calm,Calm,-,N/A,,Mostly Cloudy,0,2011-11-16 04:53:00